GW5739 Weather Reports


Display with metric or nautical units.
time (UTC)temp
F
wind
direction
speed
MPH
gust
MPH
rain 1hr
in
rain 24hr
in
rain mn
in
humidity
%
barometer
mb
20260505023054 70 0 0.0 1.0 0.00 0.00 0.00 59 1009.6
20260505022553 70 0 0.0 1.0 0.00 0.00 0.00 59 1009.6
20260505022053 71 0 0.0 1.0 0.00 0.00 0.00 57 1009.6
20260505021558 71 0 0.0 2.0 0.00 0.00 0.00 57 1009.6
20260505021052 71 134 0.0 3.0 0.00 0.00 0.00 57 1009.6
20260505020552 70 0 0.0 4.0 0.00 0.00 0.00 58 1009.6
20260505020051 70 203 1.0 4.0 0.00 0.00 0.00 57 1009.6
20260505015554 71 214 0.0 4.0 0.00 0.00 0.00 56 1009.5
20260505015053 71 134 0.0 4.0 0.00 0.00 0.00 54 1009.6
20260505014626 72 205 1.0 4.0 0.00 0.00 0.00 54 1009.5
20260505014053 73 222 1.0 4.0 0.00 0.00 0.00 53 1009.6
20260505013553 74 210 0.0 4.0 0.00 0.00 0.00 51 1009.5
20260505013053 74 0 1.0 4.0 0.00 0.00 0.00 49 1009.5
20260505012553 75 254 0.0 4.0 0.00 0.00 0.00 47 1009.6
20260505012054 75 225 1.0 4.0 0.00 0.00 0.00 43 1009.5
20260505011603 76 328 0.0 5.0 0.00 0.00 0.00 45 1009.6
20260505011054 76 0 0.0 5.0 0.00 0.00 0.00 47 1009.6
20260505010553 76 250 1.0 4.0 0.00 0.00 0.00 46 1009.7
20260505010051 76 263 1.0 4.0 0.00 0.00 0.00 47 1009.6
20260505005553 76 231 1.0 4.0 0.00 0.00 0.00 47 1009.6
20260505005054 76 0 1.0 5.0 0.00 0.00 0.00 47 1009.6
20260505004555 76 0 1.0 5.0 0.00 0.00 0.00 47 1009.7
20260505004053 76 182 1.0 4.0 0.00 0.00 0.00 47 1009.6
20260505003556 76 0 1.0 4.0 0.00 0.00 0.00 46 1009.7
20260505003055 76 281 1.0 4.0 0.00 0.00 0.00 45 1009.7
20260505002556 76 0 1.0 5.0 0.00 0.00 0.00 45 1009.7
20260505002052 76 257 1.0 5.0 0.00 0.00 0.00 47 1009.7
20260505001631 76 285 1.0 4.0 0.00 0.00 0.00 44 1009.7
20260505001055 76 0 0.0 4.0 0.00 0.00 0.00 48 1009.7
20260505000553 77 86 0.0 6.0 0.00 0.00 0.00 46 1009.7
20260505000136 76 263 1.0 6.0 0.00 0.00 0.00 48 1009.7
20260504235555 77 216 0.0 6.0 0.00 0.00 0.00 45 1009.7
20260504235053 77 204 1.0 5.0 0.00 0.00 0.00 45 1009.7
20260504234615 77 241 1.0 4.0 0.00 0.00 0.00 45 1009.9
20260504234053 77 0 0.0 5.0 0.00 0.00 0.00 44 1009.9
20260504233556 77 0 0.0 7.0 0.00 0.00 0.00 46 1009.9
20260504233106 77 226 2.0 7.0 0.00 0.00 0.00 44 1009.9
20260504232553 77 210 2.0 5.0 0.00 0.00 0.00 45 1010.0
20260504232052 77 0 2.0 5.0 0.00 0.00 0.00 41 1010.0
20260504231553 78 13 1.0 5.0 0.00 0.00 0.00 41 1010.0
20260504231052 79 249 0.0 4.0 0.00 0.00 0.00 42 1010.1
20260504230552 79 110 0.0 4.0 0.00 0.00 0.00 43 1010.0
20260504230053 79 263 0.0 4.0 0.00 0.00 0.00 41 1010.1
20260504225554 79 293 0.0 2.0 0.00 0.00 0.00 44 1010.0
20260504225053 79 0 1.0 5.0 0.00 0.00 0.00 42 1010.1
20260504224607 79 0 1.0 6.0 0.00 0.00 0.00 41 1010.1
20260504224053 78 334 3.0 6.0 0.00 0.00 0.00 43 1010.1
20260504223551 79 0 0.0 5.0 0.00 0.00 0.00 42 1010.1
20260504223056 79 287 1.0 5.0 0.00 0.00 0.00 43 1010.1
20260504222553 78 290 1.0 7.0 0.00 0.00 0.00 45 1010.1
20260504222053 78 328 2.0 7.0 0.00 0.00 0.00 43 1010.2
20260504221556 78 297 1.0 7.0 0.00 0.00 0.00 46 1010.2
20260504221052 77 0 2.0 7.0 0.00 0.00 0.00 46 1010.3
20260504220558 78 295 3.0 6.0 0.00 0.00 0.00 44 1010.3
20260504220059 78 233 1.0 6.0 0.00 0.00 0.00 45 1010.4
20260504215553 78 326 1.0 6.0 0.00 0.00 0.00 44 1010.5
20260504215056 79 2 1.0 6.0 0.00 0.00 0.00 41 1010.6
20260504214553 79 223 1.0 4.0 0.00 0.00 0.00 44 1010.6
20260504214053 78 342 2.0 5.0 0.00 0.00 0.00 44 1010.7
20260504213553 78 236 2.0 6.0 0.00 0.00 0.00 44 1010.6
20260504213125 78 0 0.0 7.0 0.00 0.00 0.00 42 1010.6
20260504212554 78 179 2.0 7.0 0.00 0.00 0.00 40 1010.7
20260504212055 78 0 1.0 7.0 0.00 0.00 0.00 43 1010.8
20260504211601 77 0 1.0 6.0 0.00 0.00 0.00 44 1010.8
20260504211053 77 321 3.0 6.0 0.00 0.00 0.00 45 1010.8
20260504210553 77 356 2.0 6.0 0.00 0.00 0.00 45 1010.8
20260504210055 77 245 2.0 5.0 0.00 0.00 0.00 47 1010.9
20260504205553 77 326 1.0 6.0 0.00 0.00 0.00 47 1010.9
20260504205053 76 123 0.0 6.0 0.00 0.00 0.00 46 1011.0
20260504204554 76 319 3.0 7.0 0.00 0.00 0.00 44 1010.8
20260504204053 76 342 2.0 7.0 0.00 0.00 0.00 45 1010.9
20260504203557 76 0 1.0 6.0 0.00 0.00 0.00 50 1011.0
20260504203109 76 40 2.0 6.0 0.00 0.00 0.00 46 1011.0
20260504202553 77 319 1.0 4.0 0.00 0.00 0.00 48 1011.0
20260504202054 77 180 1.0 6.0 0.00 0.00 0.00 48 1011.0
20260504201552 76 23 1.0 7.0 0.00 0.00 0.00 51 1011.0
20260504201053 76 23 1.0 7.0 0.00 0.00 0.00 50 1011.0
20260504200554 76 335 0.0 5.0 0.00 0.00 0.00 52 1011.1
20260504200054 75 36 1.0 6.0 0.00 0.00 0.00 48 1011.1
20260504195555 76 265 1.0 6.0 0.00 0.00 0.00 47 1011.2
20260504195053 75 282 1.0 6.0 0.00 0.00 0.00 49 1011.2
20260504194604 76 184 1.0 6.0 0.00 0.00 0.00 50 1011.1
20260504194053 75 195 2.0 6.0 0.00 0.00 0.00 47 1011.1
20260504193554 75 193 2.0 4.0 0.00 0.00 0.00 47 1011.1
20260504193100 75 268 1.0 4.0 0.00 0.00 0.00 47 1011.1
20260504192552 75 123 1.0 4.0 0.00 0.00 0.00 48 1011.1
20260504192053 75 257 1.0 4.0 0.00 0.00 0.00 50 1011.0
20260504191551 74 0 0.0 3.0 0.00 0.00 0.00 47 1011.0
20260504191054 74 188 1.0 4.0 0.00 0.00 0.00 52 1011.1
20260504190557 74 276 0.0 6.0 0.00 0.00 0.00 51 1011.2
20260504190114 74 123 1.0 6.0 0.00 0.00 0.00 52 1011.1
20260504185554 74 68 0.0 4.0 0.00 0.00 0.00 50 1011.1
20260504185053 73 0 1.0 4.0 0.00 0.00 0.00 51 1011.3
20260504184606 72 289 1.0 7.0 0.00 0.00 0.00 52 1011.2
20260504184053 72 232 1.0 7.0 0.00 0.00 0.00 52 1011.2
20260504183556 71 92 2.0 7.0 0.00 0.00 0.00 52 1011.1
20260504183056 71 143 0.0 3.0 0.00 0.00 0.00 53 1011.2
20260504182557 71 0 0.0 4.0 0.00 0.00 0.00 52 1011.2
20260504182054 70 238 1.0 4.0 0.00 0.00 0.00 57 1011.3
20260504181558 69 116 1.0 4.0 0.00 0.00 0.00 59 1011.3
20260504181054 69 0 1.0 5.0 0.00 0.00 0.00 56 1011.2
20260504180553 69 165 1.0 5.0 0.00 0.00 0.00 55 1011.3
20260504180059 69 140 0.0 3.0 0.00 0.00 0.00 56 1011.2
20260504175556 68 257 1.0 3.0 0.00 0.00 0.00 59 1011.3
20260504175057 68 287 1.0 4.0 0.00 0.00 0.00 57 1011.1
20260504174612 68 296 0.0 6.0 0.00 0.00 0.00 58 1011.1
20260504174053 67 72 2.0 6.0 0.00 0.00 0.00 62 1011.1
20260504173552 68 81 1.0 4.0 0.00 0.00 0.00 61 1011.0
20260504173115 67 198 1.0 6.0 0.00 0.00 0.00 56 1011.0
20260504172552 67 129 1.0 6.0 0.00 0.00 0.00 58 1011.1
20260504172056 68 77 0.0 4.0 0.00 0.00 0.00 65 1011.2
20260504171555 68 224 1.0 4.0 0.00 0.00 0.00 66 1011.2
20260504171056 68 120 0.0 3.0 0.00 0.00 0.00 66 1011.2
20260504170554 68 130 0.0 3.0 0.00 0.00 0.00 65 1011.2
20260504170109 68 154 0.0 3.0 0.00 0.00 0.00 64 1011.2
20260504151053 54 0 0.0 0.0 0.00 0.00 0.00 92 1010.9
20260504150553 54 0 0.0 0.0 0.00 0.00 0.00 93 1010.9
20260504141053 49 0 0.0 0.0 0.00 0.00 0.00 93 1010.2
20260504140553 49 0 0.0 0.0 0.00 0.00 0.00 93 1010.2
20260504140109 49 0 0.0 0.0 0.00 0.00 0.00 93 1010.1
20260504130555 49 0 0.0 0.0 0.00 0.00 0.00 92 1010.0
20260504130108 49 0 0.0 0.0 0.00 0.00 0.00 92 1009.9
20260504110554 51 0 0.0 0.0 0.00 0.00 0.00 91 1009.8
20260504110117 51 0 0.0 0.0 0.00 0.00 0.00 91 1009.7
20260504100555 50 0 0.0 0.0 0.00 0.00 0.00 91 1009.9
20260504090118 51 0 0.0 0.0 0.00 0.00 0.00 90 1009.7
20260504081556 52 0 0.0 0.0 0.00 0.00 0.00 88 1009.7
20260504081054 52 0 0.0 1.0 0.00 0.00 0.00 88 1009.8
20260504080556 52 0 0.0 1.0 0.00 0.00 0.00 88 1009.8
20260504060103 55 0 0.0 0.0 0.00 0.00 0.00 80 1009.9
20260504050554 58 0 0.0 0.0 0.00 0.00 0.00 74 1009.9
20260504050107 58 0 0.0 0.0 0.00 0.00 0.00 74 1009.8
20260504045557 58 0 0.0 0.0 0.00 0.00 0.00 75 1009.9
20260504045054 59 0 0.0 0.0 0.00 0.00 0.00 73 1010.0
20260504044602 59 0 0.0 0.0 0.00 0.00 0.00 74 1010.0
20260504044054 59 0 0.0 0.0 0.00 0.00 0.00 77 1010.0
20260504043555 60 0 0.0 0.0 0.00 0.00 0.00 69 1009.9
20260504043053 60 0 0.0 0.0 0.00 0.00 0.00 69 1009.9
20260504042554 60 0 0.0 0.0 0.00 0.00 0.00 69 1009.9
20260504042053 60 0 0.0 0.0 0.00 0.00 0.00 68 1009.9
20260504041553 61 0 0.0 0.0 0.00 0.00 0.00 68 1010.0
20260504041053 61 0 0.0 0.0 0.00 0.00 0.00 66 1009.9
20260504040553 61 0 0.0 0.0 0.00 0.00 0.00 67 1009.8
20260504040107 62 0 0.0 0.0 0.00 0.00 0.00 66 1009.8
20260504035555 62 0 0.0 0.0 0.00 0.00 0.00 64 1009.8
20260504035055 63 0 0.0 0.0 0.00 0.00 0.00 66 1009.7
20260504034603 64 0 0.0 0.0 0.00 0.00 0.00 63 1009.7
20260504034054 64 0 0.0 0.0 0.00 0.00 0.00 59 1009.7
20260504033554 65 0 0.0 0.0 0.00 0.00 0.00 60 1009.6
20260504033113 66 0 0.0 0.0 0.00 0.00 0.00 57 1009.6
20260504032556 67 0 0.0 1.0 0.00 0.00 0.00 57 1009.6
20260504032054 67 0 0.0 1.0 0.00 0.00 0.00 55 1009.5
20260504031600 68 0 0.0 1.0 0.00 0.00 0.00 54 1009.5
20260504031051 68 0 0.0 1.0 0.00 0.00 0.00 54 1009.6
20260504030555 69 0 0.0 1.0 0.00 0.00 0.00 51 1009.6
20260504030100 70 0 0.0 1.0 0.00 0.00 0.00 49 1009.7
20260504025552 70 0 0.0 3.0 0.00 0.00 0.00 50 1009.7
20260504025053 71 0 0.0 3.0 0.00 0.00 0.00 52 1009.7
20260504024557 71 293 0.0 2.0 0.00 0.00 0.00 48 1009.7
20260504024052 72 0 0.0 2.0 0.00 0.00 0.00 48 1009.7
20260504023553 72 354 0.0 2.0 0.00 0.00 0.00 49 1009.7